Regional Weather Roundup
Issued by NWS Green Bay, WI

Home | Current Version | Previous Version | Graphics & Text | Print | Product List | Glossary Off
Versions: 1 2 3 4 5 6 7 8 9 10 11 12 13 14 15 16 17 18 19 20 21 22 23 24 25 26 27 28 29 30 31 32 33 34 35 36 37 38 39 40 41 42 43 44 45 46 47 48 49 50

000
ASUS43 KGRB 041500
RWRGRB

NORTH-CENTRAL AND NORTHEAST WISCONSIN REGIONAL WEATHER ROUNDUP
NATIONAL WEATHER SERVICE GREEN BAY WI
1000 AM CDT SAT JUL 04 2015

WIZ005-009-010>012-018-019-041600-
NORTH CENTRAL WISCONSIN

CITY           SKY/WX    TMP DP  RH WIND       PRES   REMARKS
IRONWOOD       SUNNY     70  64  83 E5        29.95S
MANITOWISH WTR NOT AVBL
ARBOR VITAE    NOT AVBL
EAGLE RIVER    NOT AVBL
LAND O LAKES   NOT AVBL
RHINELANDER    SUNNY     71  61  70 E5        30.00S
PHILLIPS       NOT AVBL
ANTIGO         NOT AVBL
TOMAHAWK       NOT AVBL
MERRILL        NOT AVBL
$$

WIZ013-073-041600-
NORTHEAST WISCONSIN

CITY           SKY/WX    TMP DP  RH WIND       PRES   REMARKS
IRON MOUNTAIN  SUNNY     72  60  66 CALM      29.97F
MARINETTE      SUNNY     66  57  72 E7        29.97R
$$

WIZ017-030-035>037-045-041600-
CENTRAL WISCONSIN

CITY           SKY/WX    TMP DP  RH WIND       PRES   REMARKS
MEDFORD        NOT AVBL
WAUSAU         SUNNY     73  61  65 VRB3      29.96F
MOSINEE        SUNNY     70  63  78 VRB5      29.99S
MARSHFIELD     SUNNY     74  60  61 NE3       29.98S
WISC RAPIDS    SUNNY     72  58  61 CALM      29.99S
STEVENS POINT  NOT AVBL
WAUPACA        NOT AVBL
SHAWANO        NOT AVBL
CLINTONVILLE   NOT AVBL
$$

WIZ038-039-048-051-041600-
FOX VALLEY

CITY           SKY/WX    TMP DP  RH WIND       PRES   REMARKS
NWS GREEN BAY  SUNNY     74  62  66 VRB3      29.97S
APPLETON       SUNNY     72  61  68 CALM      29.98R
OSHKOSH        SUNNY     74  59  59 W5        29.97S
FOND DU LAC    SUNNY     74  63  68 VRB5      29.98S
$$

WIZ022-050-052-041600-
EAST CENTRAL WISCONSIN

CITY           SKY/WX    TMP DP  RH WIND       PRES   REMARKS
STURGEON BAY   SUNNY     70  61  73 E3        30.00R
MANITOWOC      NOT AVBL
SHEBOYGAN      SUNNY     75  61  61 W6        29.97S
$$

LMZ563-521-522-541>543-041600-
LAKESHORE

STATION/POSITION TIME  TEMP    WIND        PRES    VSBY  WAVE
                       AIR SEA DIR/SP/G                  HT/PER
                 (UTC) (F)     (DEG/KT/KT) (MB)    (MI)  (FT/S)
SHEBOYGAN LKSHOR 1400   71     290/  8/ 11 1014.7R
KEWAUNEE LKSHORE 1400   70      40/  2/  6 1014.0R
ALGOMA MARINA    1410           70/ 10/ 11   N/A
NORTHPORT PIER   1400   63      80/  5/  6 1014.9R
N MID LAKE BUOY  1350   49 44  360/  6/  6 1014.8R         1/ 3
CHAMBERS ISLAND  1400   64      20/  7/  8 1014.9S
MENOMINEE LKSHOR 1400   64      20/  9/ 11 1015.4R
$$


USA.gov is the U.S. government's official web portal to all federal, state and local government web resources and services.